Location: Courçay
(47.2523°N, 0.8761°E)
Time: 06:26:57
(UTC+00:00)

Cosmos 1602 - Pass Details

Date: 18 November 2025
Orbit: 367 x 375 km, 82.5° (Epoch: 10 December)

Event Time Altitude Azimuth Distance (km) Brightness Sun altitude
Rises 17:35:54 0° 354° (N) 2,293 6.9 -13.2°
Reaches altitude 10° 17:37:56 10° 358° (N) 1,436 5.8 -13.5°
Maximum altitude 17:41:00 58° 79° (E) 467 3.1 -14.0°
Drops below altitude 10° 17:44:05 10° 160° (SSE) 1,432 5.9 -14.5°
Sets 17:46:06 0° 164° (SSE) 2,286 7.0 -14.8°
